User: anonymous   Login
Location: B?ezina
(49.8085°N, 13.6013°E)
Time: 02:47:07
(UTC+00:00)
Language:

USA 59 Rocket - Orbit

View from above orbital plane
View from above orbital plane
View from above satellite
View from above satellite

Ground track
Ground track

The orbit is defined by the following mean orbital elements,

1 20682U          26129.80496978 +.00000000 +00000-0 +42373-3 0 00004
2 20682  63.2957 311.5848 0876991  82.2110 287.7473 13.65494209    07
Epoch (UTC): 09 May 2026 19:19:09
Eccentricity: 0.0876991
inclination: 63.2957°
perigee height: 367 km
apogee height: 1664 km
right ascension of ascending node: 311.5848°
argument of perigee: 82.2110°
revolutions per day: 13.65494209
mean anomaly at epoch: 287.7473°

The dashed part of the orbit path shows where the satellite is in the earth's shadow,  

DLR